Location: Summit Observatory
(39.5293°N, 75.7290°W)
Time: 12:12:56
(UTC-04:00)

Amateur Radio Satellites - All Passes

Search period start: 01 August 2015 11:42
Search period end: 02 August 2015 11:42
Location: Summit Observatory, 39.5293°N, 75.7290°W

Satellite Date Start Highest point End Downlink Frequencies (MHz)
Time Altitude Azimuth
ESTCUBE 1 01 Aug 11:46:26 11:50:20 29° 96° (E) 11:54:16 437.505/2401.250
ZACube-1 01 Aug 11:51:47 11:55:39 27° 290° (WNW) 11:59:29 437.345
POLYITAN 1 01 Aug 11:58:32 12:02:28 39° 262° (W) 12:06:26 437.675
AIST 1 01 Aug 12:04:46 12:08:51 42° 93° (E) 12:12:58
UNISAT 6 01 Aug 12:07:03 12:09:25 14° 271° (W) 12:11:37 437.425
Oscar 19 01 Aug 12:11:32 12:13:12 12° 61° (ENE) 12:15:10 437.125/150
FUNcube-1 01 Aug 12:14:08 12:17:10 17° 293° (WNW) 12:20:04 145.935
Cosmos 2491 01 Aug 12:15:15 12:23:34 51° 90° (E) 12:31:57 435.465 / 435.565
POPSAT HIP 1 01 Aug 12:16:03 12:19:36 26° 265° (W) 12:23:06 437.405
UWE-3 01 Aug 12:17:29 12:19:39 13° 295° (WNW) 12:21:36 435.000/436.395/437.385
BUGSAT 1 01 Aug 12:18:55 12:22:42 36° 262° (W) 12:26:27 437.445
50 SAT 01 Aug 12:21:20 12:25:15 56° 285° (WNW) 12:29:08 437.505
QB50P2 01 Aug 12:24:11 12:27:23 20° 267° (W) 12:30:31 145.880/145.840
UKube-1 01 Aug 12:27:03 12:31:09 42° 288° (WNW) 12:35:12 .
O/OREOS (USA 219) 01 Aug 12:30:34 12:34:51 38° 254° (WSW) 12:39:05 437.305
AISAT 01 Aug 12:31:21 12:35:42 58° 286° (WNW) 12:40:02 437.250
HUMSAT D 01 Aug 12:37:45 12:40:58 20° 292° (WNW) 12:44:04 437.325/437.525
CUBEBUG 1 01 Aug 12:44:56 12:49:16 73° 284° (WNW) 12:53:34 437.445
DUCHIFAT 1 01 Aug 12:50:29 12:52:02 11° 271° (W) 12:53:20 145.980
DX 1 01 Aug 12:56:12 12:59:23 20° 293° (WNW) 13:02:28 434.975-435.025
VELOX 1 01 Aug 13:11:00 13:14:33 23° 292° (WNW) 13:18:00 145.980
Gurwin Techsat 1B 01 Aug 13:11:21 13:13:51 14° 62° (ENE) 13:16:37 435.225
SPROUT 01 Aug 13:20:06 13:24:25 81° 102° (ESE) 13:28:43 437.525
Cosmos 2504 01 Aug 13:23:19 13:30:47 35° 71° (ENE) 13:38:32 435.465 / 435.565
ESTCUBE 1 01 Aug 13:23:24 13:27:06 25° 291° (WNW) 13:30:42 437.505/2401.250
ITAMSAT 1 01 Aug 13:31:02 13:34:30 19° 65° (ENE) 13:38:09 435.822/435.867
TISAT 1 01 Aug 13:31:05 13:35:16 64° 101° (E) 13:39:27 437.305
YUBILEINY 01 Aug 13:40:39 13:47:50 28° 276° (W) 13:54:43 435.215
AIST 1 01 Aug 13:44:06 13:46:47 15° 290° (WNW) 13:49:18
Oscar 19 01 Aug 13:46:48 13:51:55 86° 256° (WSW) 13:57:05 437.125/150
Cosmos 2491 01 Aug 14:12:58 14:20:48 34° 290° (WNW) 14:28:27 435.465 / 435.565
BEESAT 01 Aug 14:14:18 14:18:26 29° 95° (E) 14:22:37 436.000
JAS-2 01 Aug 14:26:43 14:31:49 29° 63° (ENE) 14:37:36 435.910
SWISSCUBE 01 Aug 14:34:33 14:39:13 52° 100° (E) 14:43:51 437.505
Gurwin Techsat 1B 01 Aug 14:47:56 14:53:14 77° 257° (WSW) 14:58:36 435.225
ITUPSAT 1 01 Aug 14:55:35 15:00:24 78° 103° (ESE) 15:05:10 437.325
KKS-1 01 Aug 15:02:44 15:05:11 15° 91° (E) 15:07:50 437.445
HORYU 2 01 Aug 15:06:15 15:09:15 19° 67° (ENE) 15:12:24 437.375
ITAMSAT 1 01 Aug 15:08:32 15:13:38 54° 260° (W) 15:18:45 435.822/435.867
TISAT 1 01 Aug 15:09:10 15:10:34 11° 295° (WNW) 15:11:44 437.305
AO-7 01 Aug 15:09:22 15:16:59 42° 63° (ENE) 15:24:44 29.400- 29.500
Cosmos 2504 01 Aug 15:15:11 15:23:17 51° 270° (W) 15:31:28 435.465 / 435.565
DANDE 01 Aug 15:31:55 15:35:34 42° 80° (E) 15:40:26 436.750
CUSAT 1 01 Aug 15:49:22 15:53:38 74° 261° (W) 15:59:20 437.405
BEESAT 01 Aug 15:52:08 15:56:13 28° 291° (WNW) 16:00:13 436.000
STARS 01 Aug 16:10:01 16:14:18 48° 99° (E) 16:18:36 437.465
JAS-2 01 Aug 16:10:47 16:16:34 47° 264° (W) 16:23:07 435.910
SWISSCUBE 01 Aug 16:13:37 16:16:41 17° 295° (WNW) 16:19:34 437.505
GONETS M04 01 Aug 16:24:55 16:31:53 27° 67° (ENE) 16:39:07
ITUPSAT 1 01 Aug 16:35:57 16:37:42 12° 298° (WNW) 16:39:11 437.325
KKS-1 01 Aug 16:37:50 16:42:08 48° 287° (WNW) 16:46:26 437.445
HORYU 2 01 Aug 16:41:25 16:45:36 40° 262° (W) 16:49:50 437.375
AO-7 01 Aug 17:01:51 17:09:46 44° 261° (W) 17:17:38 29.400- 29.500
VERMONT LUNAR 01 Aug 17:16:12 17:17:25 12° 146° (SSE) 17:18:43 437.305
DANDE 01 Aug 17:16:26 17:18:42 14° 264° (W) 17:21:03 436.750
Cubesat XI-IV 01 Aug 17:23:54 17:27:45 21° 65° (ENE) 17:31:44 437.490
MOZHAYETS 4 01 Aug 17:31:03 17:35:41 75° 101° (E) 17:40:17
SO-50 01 Aug 17:33:06 17:37:08 25° 45° (NE) 17:41:11 436.795
PCSat 01 Aug 17:42:03 17:46:31 26° 49° (NE) 17:51:03 145.827
STARS 01 Aug 17:47:41 17:50:24 16° 294° (WNW) 17:52:56 437.465
Cosmos 2499 01 Aug 17:49:26 17:55:53 23° 65° (ENE) 18:02:46 435.465 / 435.565
CUTE-I 01 Aug 18:17:59 18:23:16 63° 74° (ENE) 18:28:35 437.470
GONETS M04 01 Aug 18:20:53 18:29:29 64° 267° (W) 18:38:03
VERMONT LUNAR 01 Aug 18:50:37 18:53:43 51° 160° (SSE) 18:56:50 437.305
Cubesat XI-IV 01 Aug 19:02:17 19:07:31 51° 260° (W) 19:12:45 437.490
MOZHAYETS 4 01 Aug 19:10:48 19:12:21 11° 297° (WNW) 19:13:39
SO-50 01 Aug 19:13:11 19:17:56 46° 244° (WSW) 19:22:31 436.795
PHONESAT 2.4 01 Aug 19:13:23 19:15:24 15° 147° (SSE) 19:17:31 2401.200-2431.200
PCSat 01 Aug 19:25:00 19:30:11 47° 248° (WSW) 19:35:19 145.827
CUBESAT XI-V 01 Aug 19:26:24 19:31:01 79° 285° (WNW) 19:35:36 437.345
Cosmos 2499 01 Aug 19:41:18 19:50:05 78° 265° (W) 19:58:56 435.465 / 435.565
DOVE 4 01 Aug 19:44:33 19:47:12 17° 68° (ENE) 19:49:59 437.250
BRITE-PL 01 Aug 19:48:43 19:53:02 59° 75° (ENE) 19:57:11 437.365/2234.400
GOMX 1 01 Aug 19:57:14 20:01:11 40° 73° (ENE) 20:05:05 467.674
SEEDS 01 Aug 19:59:10 20:01:48 17° 67° (ENE) 20:04:36 437.485
CUTE-I 01 Aug 20:00:38 20:03:53 15° 270° (W) 20:06:51 437.470
CUTE 1.7 + AOD 2 01 Aug 20:02:12 20:05:28 22° 69° (ENE) 20:08:51 437.475
HO-68 01 Aug 20:04:43 20:11:23 46° 67° (ENE) 20:18:08 435.675
STRAND 1 01 Aug 20:08:03 20:13:10 76° 102° (ESE) 20:18:16 437.568
CANX-2 01 Aug 20:10:10 20:13:53 30° 71° (ENE) 20:17:40 2200.000
PRISM 01 Aug 20:18:45 20:22:53 88° 101° (E) 20:26:58 437.425
AAUSAT CUBESAT 2 01 Aug 20:23:44 20:26:48 21° 69° (ENE) 20:30:00 437.432
VERMONT LUNAR 01 Aug 20:27:14 20:30:25 72° 357° (N) 20:33:36 437.305
ISS 01 Aug 20:33:28 20:36:16 27° 134° (SE) 20:39:07 145.825
PHONESAT 2.4 01 Aug 20:49:31 20:52:58 58° 162° (SSE) 20:56:26 2401.200-2431.200
RS-15 01 Aug 20:58:56 21:08:49 44° 110° (ESE) 21:19:10 29.354- 29.394
ZACube-1 01 Aug 21:11:27 21:14:21 19° 68° (ENE) 21:17:26 437.345
COMPASS 1 01 Aug 21:16:58 21:21:11 82° 259° (W) 21:25:26 437.405
DOVE 4 01 Aug 21:20:54 21:24:46 36° 263° (W) 21:28:35 437.250
CINEMA 3 01 Aug 21:25:24 21:29:32 79° 257° (WSW) 21:33:46 145.822/145.860
BRITE-PL 01 Aug 21:30:54 21:32:01 11° 271° (W) 21:32:50 437.365/2234.400
FUNcube-1 01 Aug 21:32:01 21:35:40 30° 71° (ENE) 21:39:27 145.935
SEEDS 01 Aug 21:33:17 21:37:18 41° 262° (W) 21:41:21 437.485
UWE-3 01 Aug 21:35:27 21:39:26 45° 73° (ENE) 21:43:33 435.000/436.395/437.385
GOMX 1 01 Aug 21:37:03 21:39:34 15° 269° (W) 21:41:54 467.674
CUTE 1.7 + AOD 2 01 Aug 21:37:27 21:41:15 30° 265° (W) 21:45:01 437.475
Cosmos 2499 01 Aug 21:37:31 21:42:05 15° 281° (WNW) 21:46:01 435.465 / 435.565
DELFI C3 01 Aug 21:39:58 21:43:48 42° 73° (ENE) 21:47:41 145.870
AUBIESAT-1 01 Aug 21:41:38 21:43:28 12° 92° (E) 21:45:32 437.475
Oscar 11 01 Aug 21:43:07 21:47:25 73° 76° (ENE) 21:51:47 145.826/435.025
CANX-2 01 Aug 21:46:29 21:49:51 22° 267° (W) 21:53:09 2200.000
UKube-1 01 Aug 21:47:08 21:49:04 13° 65° (ENE) 21:51:13 .
STRAND 1 01 Aug 21:49:19 21:51:49 13° 298° (WNW) 21:54:03 437.568
CUBEBUG 2 01 Aug 21:52:06 21:56:17 88° 261° (W) 22:00:35 437.445
HUMSAT D 01 Aug 21:52:53 21:56:01 22° 69° (ENE) 21:59:18 437.325/437.525
HO-68 01 Aug 21:52:55 21:59:17 33° 264° (W) 22:05:34 435.675
AISAT 01 Aug 21:55:25 21:56:14 11° 63° (ENE) 21:57:19 437.250
AAUSAT CUBESAT 2 01 Aug 21:58:27 22:02:13 31° 264° (W) 22:06:00 437.432
VERMONT LUNAR 01 Aug 22:04:02 22:07:12 80° 196° (SSW) 22:10:22 437.305
ISS 01 Aug 22:09:41 22:12:39 32° 330° (NNW) 22:15:38 145.825
DX 1 01 Aug 22:14:17 22:17:59 28° 70° (ENE) 22:21:43 434.975-435.025
UNISAT 6 01 Aug 22:22:45 22:24:28 12° 88° (E) 22:26:27 437.425
Cosmos 2491 01 Aug 22:27:19 22:33:50 24° 65° (ENE) 22:40:40 435.465 / 435.565
PHONESAT 2.4 01 Aug 22:27:25 22:30:56 74° 358° (N) 22:34:27 2401.200-2431.200
VELOX 1 01 Aug 22:31:14 22:34:48 25° 69° (ENE) 22:38:27 145.980
BEESAT 3 01 Aug 22:38:24 22:40:31 14° 111° (ESE) 22:42:50 437.485
M-CUBED/EXP-1 PRIME 01 Aug 22:45:09 22:49:59 71° 106° (ESE) 22:54:38 437.505
ESTCUBE 1 01 Aug 22:45:23 22:49:04 25° 69° (ENE) 22:52:50 437.505/2401.250
ZACube-1 01 Aug 22:46:39 22:50:29 34° 264° (W) 22:54:24 437.345
YUBILEINY 01 Aug 22:52:49 22:55:17 12° 77° (ENE) 22:58:32 435.215
QB50P1 01 Aug 23:03:31 23:04:28 11° 89° (E) 23:05:42 145.935-145.965
50 SAT 01 Aug 23:03:46 23:07:37 66° 76° (ENE) 23:11:31 437.505
TIGRISAT 01 Aug 23:03:49 23:08:00 33° 96° (E) 23:12:16 435.000
NANOSAT C BR1 01 Aug 23:04:26 23:05:25 11° 89° (E) 23:06:41 145.865
ANTELSAT 01 Aug 23:05:50 23:10:09 36° 97° (E) 23:14:30 437.575/2403.000
FUNcube-1 01 Aug 23:08:51 23:12:04 21° 267° (W) 23:15:14 145.935
RS-15 01 Aug 23:10:21 23:21:03 54° 312° (NW) 23:32:05 29.354- 29.394
AUBIESAT-1 01 Aug 23:13:58 23:18:42 68° 290° (WNW) 23:23:16 437.475
UWE-3 01 Aug 23:14:01 23:16:19 14° 271° (W) 23:18:26 435.000/436.395/437.385
DELFI C3 01 Aug 23:16:54 23:19:08 14° 270° (W) 23:21:11 145.870
UKube-1 01 Aug 23:20:32 23:24:47 56° 260° (W) 23:29:03 .
AISAT 01 Aug 23:27:53 23:32:16 74° 258° (WSW) 23:36:41 437.250
HUMSAT D 01 Aug 23:27:59 23:31:38 29° 265° (W) 23:35:16 437.325/437.525
BEESAT 2 01 Aug 23:35:19 23:39:14 47° 117° (ESE) 23:43:14 435.950
AIST 2 01 Aug 23:38:27 23:39:09 10° 109° (ESE) 23:40:07 435.215
CUBEBUG 1 01 Aug 23:39:51 23:44:12 82° 76° (ENE) 23:48:33 437.445
VERMONT LUNAR 01 Aug 23:41:09 23:43:41 22° 208° (SSW) 23:46:10 437.305
POLYITAN 1 01 Aug 23:44:35 23:48:28 34° 97° (E) 23:52:24 437.675
ISS 01 Aug 23:48:42 23:49:53 11° 350° (N) 23:51:03 145.825
AIST 1 01 Aug 23:50:01 23:54:15 66° 265° (W) 23:58:27
DX 1 01 Aug 23:50:38 23:54:13 24° 265° (W) 23:57:43 434.975-435.025
UNISAT 6 01 Aug 23:57:04 00:01:45 65° 285° (WNW) 00:06:24 437.425
POPSAT HIP 1 02 Aug 00:01:09 00:05:19 51° 99° (E) 00:09:30 437.405
BUGSAT 1 02 Aug 00:01:45 00:05:21 30° 97° (E) 00:09:01 437.445
PHONESAT 2.4 02 Aug 00:05:27 00:08:58 76° 195° (SSW) 00:12:27 2401.200-2431.200
VELOX 1 02 Aug 00:07:26 00:11:17 28° 265° (W) 00:15:03 145.980
QB50P2 02 Aug 00:08:57 00:13:13 67° 101° (E) 00:17:28 145.880/145.840
SPROUT 02 Aug 00:13:10 00:17:19 54° 74° (ENE) 00:21:29 437.525
BEESAT 3 02 Aug 00:14:09 00:18:06 48° 305° (NW) 00:22:05 437.485
M-CUBED/EXP-1 PRIME 02 Aug 00:21:31 00:24:11 15° 301° (WNW) 00:26:38 437.505
ESTCUBE 1 02 Aug 00:21:51 00:25:50 29° 264° (W) 00:29:47 437.505/2401.250
TISAT 1 02 Aug 00:22:16 00:26:10 41° 72° (ENE) 00:30:07 437.305
Cosmos 2491 02 Aug 00:22:59 00:31:40 72° 266° (W) 00:40:18 435.465 / 435.565
DUCHIFAT 1 02 Aug 00:32:41 00:36:55 69° 285° (WNW) 00:41:09 145.980
QB50P1 02 Aug 00:36:35 00:40:47 60° 286° (WNW) 00:44:58 145.935-145.965
NANOSAT C BR1 02 Aug 00:37:30 00:41:42 59° 285° (WNW) 00:45:52 145.865
TIGRISAT 02 Aug 00:40:46 00:44:37 25° 291° (WNW) 00:48:23 435.000
YUBILEINY 02 Aug 00:42:07 00:50:45 73° 94° (E) 00:59:29 435.215
ANTELSAT 02 Aug 00:43:00 00:46:44 23° 292° (WNW) 00:50:22 437.575/2403.000
O/OREOS (USA 219) 02 Aug 01:03:11 01:06:50 26° 103° (ESE) 01:10:36 437.305
AIST 2 02 Aug 01:13:00 01:17:13 70° 303° (WNW) 01:21:30 435.215
BEESAT 2 02 Aug 01:14:39 01:17:34 18° 315° (NW) 01:20:24 435.950
BEESAT 02 Aug 01:19:55 01:24:06 31° 69° (ENE) 01:28:20 436.000
POLYITAN 1 02 Aug 01:20:59 01:24:10 20° 292° (WNW) 01:27:15 437.675
ISS 02 Aug 01:26:16 01:27:28 12° 10° (N) 01:28:41 145.825
RS-15 02 Aug 01:28:49 01:36:59 22° 343° (NNW) 01:45:12 29.354- 29.394
BUGSAT 1 02 Aug 01:37:37 01:40:39 20° 291° (WNW) 01:43:37 437.445
POPSAT HIP 1 02 Aug 01:38:32 01:40:48 14° 294° (WNW) 01:42:53 437.405
SWISSCUBE 02 Aug 01:40:02 01:44:42 55° 73° (ENE) 01:49:25 437.505
PHONESAT 2.4 02 Aug 01:43:52 01:46:38 22° 210° (SSW) 01:49:22 2401.200-2431.200
QB50P2 02 Aug 01:47:19 01:48:37 11° 295° (WNW) 01:49:39 145.880/145.840
SPROUT 02 Aug 01:52:00 01:53:48 12° 271° (W) 01:55:22 437.525
Cosmos 2504 02 Aug 01:54:43 01:59:47 22° 82° (E) 02:05:24 435.465 / 435.565
Oscar 19 02 Aug 01:59:29 02:04:13 36° 97° (E) 02:09:00 437.125/150
TISAT 1 02 Aug 01:59:37 02:02:10 15° 269° (W) 02:04:33 437.305
KKS-1 02 Aug 02:01:00 02:02:57 13° 65° (ENE) 02:05:07 437.445
ITUPSAT 1 02 Aug 02:01:16 02:06:05 81° 77° (ENE) 02:10:55 437.325
Cosmos 2491 02 Aug 02:24:06 02:27:10 12° 283° (WNW) 02:29:29 435.465 / 435.565
YUBILEINY 02 Aug 02:41:45 02:48:34 24° 296° (WNW) 02:55:06 435.215
O/OREOS (USA 219) 02 Aug 02:42:17 02:46:11 28° 300° (WNW) 02:50:05 437.305
BEESAT 02 Aug 02:57:53 03:01:57 26° 265° (W) 03:05:57 436.000
ISS 02 Aug 03:01:42 03:04:41 32° 29° (NNE) 03:07:40 145.825
Gurwin Techsat 1B 02 Aug 03:05:11 03:10:17 46° 98° (E) 03:15:22 435.225
STARS 02 Aug 03:06:02 03:10:03 38° 71° (ENE) 03:14:08 437.465
AO-7 02 Aug 03:15:52 03:17:31 11° 84° (E) 03:19:59 29.400- 29.500
SWISSCUBE 02 Aug 03:20:07 03:22:58 15° 270° (W) 03:25:35 437.505
JAS-2 02 Aug 03:20:31 03:27:18 32° 92° (E) 03:34:06 435.910
ITAMSAT 1 02 Aug 03:22:12 03:27:18 58° 100° (E) 03:32:23 435.822/435.867
KKS-1 02 Aug 03:34:47 03:39:09 59° 259° (W) 03:43:32 437.445
Oscar 19 02 Aug 03:39:07 03:43:26 27° 293° (WNW) 03:47:40 437.125/150
Cosmos 2504 02 Aug 03:44:17 03:51:19 62° 282° (WNW) 03:58:53 435.465 / 435.565
RS-15 02 Aug 03:46:53 03:55:08 22° 18° (NNE) 04:03:54 29.354- 29.394
MOZHAYETS 4 02 Aug 04:31:46 04:36:21 63° 74° (ENE) 04:40:57
HORYU 2 02 Aug 04:33:16 04:37:30 39° 98° (E) 04:41:44 437.375
ISS 02 Aug 04:38:14 04:41:04 27° 226° (SW) 04:43:51 145.825
STARS 02 Aug 04:43:38 04:46:41 18° 268° (W) 04:49:36 437.465
DANDE 02 Aug 04:44:34 04:47:50 56° 98° (E) 04:50:33 436.750
Gurwin Techsat 1B 02 Aug 04:45:53 04:49:59 22° 294° (WNW) 04:53:57 435.225
CUSAT 1 02 Aug 04:58:17 05:00:59 36° 281° (WNW) 05:03:26 437.405
ITAMSAT 1 02 Aug 05:02:57 05:06:23 18° 296° (WNW) 05:09:38 435.822/435.867
AO-7 02 Aug 05:03:45 05:12:04 69° 104° (ESE) 05:20:20 29.400- 29.500
JAS-2 02 Aug 05:04:59 05:12:36 54° 290° (WNW) 05:20:02 435.910
GONETS M04 02 Aug 05:25:21 05:32:32 31° 85° (E) 05:39:56
STRAND 1 02 Aug 05:47:36 05:49:30 12° 62° (ENE) 05:51:40 437.568
RS-15 02 Aug 05:59:49 06:11:13 54° 48° (NE) 06:23:06 29.354- 29.394
HORYU 2 02 Aug 06:10:37 06:13:54 19° 293° (WNW) 06:17:02 437.375
MOZHAYETS 4 02 Aug 06:12:06 06:14:04 12° 272° (W) 06:15:47
Cosmos 2499 02 Aug 06:28:28 06:31:54 14° 78° (ENE) 06:35:59 435.465 / 435.565
CUBESAT XI-V 02 Aug 06:28:30 06:33:12 90° 54° (NE) 06:37:53 437.345
CUTE-I 02 Aug 06:36:34 06:40:59 27° 94° (E) 06:45:27 437.470
JAS-2 02 Aug 06:53:57 06:56:10 11° 307° (NW) 06:57:51 435.910
AO-7 02 Aug 06:57:31 07:04:17 28° 302° (WNW) 07:10:48 29.400- 29.500
PRISM 02 Aug 07:07:30 07:11:36 56° 74° (ENE) 07:15:43 437.425
Cubesat XI-IV 02 Aug 07:20:19 07:25:39 70° 102° (ESE) 07:30:56 437.490
GONETS M04 02 Aug 07:20:31 07:29:02 54° 284° (WNW) 07:37:29
STRAND 1 02 Aug 07:22:56 07:28:04 83° 255° (WSW) 07:33:16 437.568
BRITE-PL 02 Aug 07:54:10 07:57:21 20° 93° (E) 08:00:50 437.365/2234.400
BEESAT 2 02 Aug 07:55:29 07:58:47 23° 48° (NE) 08:02:06 435.950
GOMX 1 02 Aug 08:00:20 08:02:34 14° 90° (E) 08:05:07 467.674
RS-15 02 Aug 08:12:33 08:23:44 49° 249° (WSW) 08:35:04 29.354- 29.394
CUTE-I 02 Aug 08:16:17 08:21:09 37° 291° (WNW) 08:25:57 437.470
Cosmos 2499 02 Aug 08:16:29 08:23:52 89° 98° (E) 08:31:55 435.465 / 435.565
PCSat 02 Aug 08:23:17 08:27:36 26° 109° (ESE) 08:32:03 145.827
AUBIESAT-1 02 Aug 08:28:13 08:30:14 14° 58° (ENE) 08:32:28 437.475
BEESAT 3 02 Aug 08:33:16 08:37:19 73° 57° (ENE) 08:41:18 437.485
PRISM 02 Aug 08:45:58 08:47:27 11° 270° (W) 08:48:40 437.425
Cubesat XI-IV 02 Aug 09:02:06 09:05:13 15° 298° (WNW) 09:08:06 437.490
COMPASS 1 02 Aug 09:02:21 09:05:04 17° 91° (E) 09:07:54 437.405
SEEDS 02 Aug 09:18:25 09:22:17 33° 96° (E) 09:26:09 437.485
DOVE 4 02 Aug 09:19:21 09:23:56 58° 100° (E) 09:28:49 437.250
HO-68 02 Aug 09:20:26 09:27:23 51° 100° (E) 09:34:22 435.675
CINEMA 3 02 Aug 09:20:48 09:24:49 27° 95° (E) 09:29:00 145.822/145.860
CUTE 1.7 + AOD 2 02 Aug 09:22:58 09:27:08 48° 99° (E) 09:31:17 437.475
SO-50 02 Aug 09:26:00 09:30:43 74° 120° (ESE) 09:35:37 436.795
UWE-3 02 Aug 09:28:22 09:29:29 11° 88° (E) 09:30:55 435.000/436.395/437.385
CANX-2 02 Aug 09:31:27 09:35:45 68° 100° (E) 09:40:01 2200.000
BRITE-PL 02 Aug 09:31:55 09:36:01 37° 287° (WNW) 09:40:20 437.365/2234.400
M-CUBED/EXP-1 PRIME 02 Aug 09:32:05 09:36:07 75° 70° (ENE) 09:40:32 437.505
Oscar 11 02 Aug 09:32:54 09:35:09 14° 90° (E) 09:37:36 145.826/435.025
BEESAT 2 02 Aug 09:33:15 09:36:53 31° 245° (WSW) 09:40:25 435.950
AIST 2 02 Aug 09:35:34 09:39:42 56° 55° (NE) 09:43:45 435.215
GOMX 1 02 Aug 09:36:33 09:41:02 57° 285° (WNW) 09:45:49 467.674
AAUSAT CUBESAT 2 02 Aug 09:41:48 09:45:46 40° 97° (E) 09:49:44 437.432
CUBEBUG 2 02 Aug 09:44:17 09:47:53 22° 93° (E) 09:51:37 437.445
AUBIESAT-1 02 Aug 10:00:22 10:04:22 60° 255° (WSW) 10:08:44 437.475
TIGRISAT 02 Aug 10:02:11 10:05:41 25° 69° (ENE) 10:09:21 435.000
ANTELSAT 02 Aug 10:04:20 10:08:00 27° 69° (ENE) 10:11:48 437.575/2403.000
PCSat 02 Aug 10:05:39 10:10:48 43° 305° (NW) 10:15:58 145.827
Cosmos 2499 02 Aug 10:13:47 10:18:31 16° 300° (WNW) 10:23:00 435.465 / 435.565
ZACube-1 02 Aug 10:35:24 10:39:47 46° 98° (E) 10:44:13 437.345
COMPASS 1 02 Aug 10:36:59 10:40:54 37° 288° (WNW) 10:44:45 437.405
POLYITAN 1 02 Aug 10:37:08 10:40:26 23° 69° (ENE) 10:43:49 437.675
BUGSAT 1 02 Aug 10:51:37 10:54:29 20° 69° (ENE) 10:57:28 437.445
POPSAT HIP 1 02 Aug 10:53:09 10:56:55 34° 71° (ENE) 11:00:45 437.405
YUBILEINY 02 Aug 10:53:47 11:01:32 34° 70° (ENE) 11:09:27 435.215
DELFI C3 02 Aug 10:54:27 10:58:32 84° 102° (ESE) 11:02:34 145.870
SEEDS 02 Aug 10:54:42 10:57:53 20° 291° (WNW) 11:00:55 437.485
UNISAT 6 02 Aug 10:54:59 10:59:20 82° 258° (WSW) 11:03:49 437.425
FUNcube-1 02 Aug 10:56:25 11:00:59 77° 101° (E) 11:05:34 145.935
CINEMA 3 02 Aug 10:57:50 11:01:59 30° 289° (WNW) 11:06:12 145.822/145.860
DOVE 4 02 Aug 10:58:38 11:01:22 15° 293° (WNW) 11:03:57 437.250
CUTE 1.7 + AOD 2 02 Aug 11:00:10 11:02:40 15° 294° (WNW) 11:05:00 437.475
QB50P2 02 Aug 11:00:55 11:04:53 43° 73° (ENE) 11:08:55 145.880/145.840
UWE-3 02 Aug 11:01:56 11:06:32 70° 284° (WNW) 11:11:10 435.000/436.395/437.385
Oscar 11 02 Aug 11:07:26 11:11:39 47° 287° (WNW) 11:15:49 145.826/435.025
SO-50 02 Aug 11:08:38 11:11:53 17° 320° (NW) 11:15:03 436.795
HO-68 02 Aug 11:08:41 11:14:51 31° 297° (WNW) 11:20:52 435.675
UKube-1 02 Aug 11:09:17 11:12:47 24° 95° (E) 11:16:22 .
CANX-2 02 Aug 11:09:55 11:11:09 11° 296° (WNW) 11:12:09 2200.000
HUMSAT D 02 Aug 11:12:06 11:16:17 46° 99° (E) 11:20:27 437.325/437.525
O/OREOS (USA 219) 02 Aug 11:13:11 11:17:35 44° 64° (ENE) 11:21:59 437.305
AIST 2 02 Aug 11:15:55 11:17:50 13° 250° (WSW) 11:19:33 435.215
AAUSAT CUBESAT 2 02 Aug 11:18:22 11:21:04 16° 293° (WNW) 11:23:37 437.432
AISAT 02 Aug 11:20:00 11:23:24 22° 94° (E) 11:26:54 437.250
CUBEBUG 2 02 Aug 11:20:23 11:24:39 36° 288° (WNW) 11:28:56 437.445
DUCHIFAT 1 02 Aug 11:23:48 11:27:57 76° 76° (ENE) 11:32:09 145.980
Cosmos 2491 02 Aug 11:28:02 11:34:53 28° 84° (E) 11:42:01 435.465 / 435.565
QB50P1 02 Aug 11:28:02 11:32:14 89° 84° (E) 11:36:28 145.935-145.965
NANOSAT C BR1 02 Aug 11:28:45 11:32:55 89° 85° (E) 11:37:09 145.865
CUBEBUG 1 02 Aug 11:30:49 11:33:22 16° 91° (E) 11:36:06 437.445
